BAW34 MPTO-MWCR

Flight info

Callsign BAW34
Flight time 1h 37m
Altitude 35000
Route SIMAN DCT SEKMA DCT EMASA DCT MOBIX DCT SASER DCT GCM
Aircraft B77W/H-SDE1E2E3FGHIJ2J3J4J5M1RWXY/LB1D1

Departure

Time 2026-04-25 16:45
Airport Tocumen International Airport (MPTO)

Arrival

Time 2026-04-25 18:23
Airport Owen Roberts International Airport (MWCR)
Time Latitude Longitude Altitude Speed Heading
2026-04-25 15:25 9.06641 -79.38612 65 ft 0 kts 300°
2026-04-25 16:24 9.06641 -79.38613 65 ft 0 kts 300°
2026-04-25 16:24 9.06640 -79.38612 65 ft 1 kts 300°
2026-04-25 16:24 9.06629 -79.38593 65 ft 4 kts 301°
2026-04-25 16:25 9.06615 -79.38569 65 ft 4 kts 301°
2026-04-25 16:25 9.06610 -79.38560 65 ft 4 kts 301°
2026-04-25 16:25 9.06601 -79.38527 65 ft 2 kts 255°
2026-04-25 16:25 9.06609 -79.38508 65 ft 2 kts 227°
2026-04-25 16:26 9.06622 -79.38498 65 ft 0 kts 211°
2026-04-25 16:32 9.06622 -79.38499 65 ft 0 kts 211°
2026-04-25 16:33 9.06590 -79.38516 64 ft 9 kts 209°
2026-04-25 16:33 9.06528 -79.38552 63 ft 12 kts 210°
2026-04-25 16:33 9.06439 -79.38604 60 ft 15 kts 210°
2026-04-25 16:33 9.06346 -79.38638 57 ft 14 kts 184°
2026-04-25 16:34 9.06243 -79.38640 54 ft 15 kts 184°
2026-04-25 16:34 9.06157 -79.38658 53 ft 10 kts 200°
2026-04-25 16:34 9.06086 -79.38694 51 ft 17 kts 209°
2026-04-25 16:34 9.05968 -79.38761 50 ft 20 kts 210°
2026-04-25 16:35 9.05851 -79.38829 47 ft 20 kts 211°
2026-04-25 16:35 9.05742 -79.38893 46 ft 18 kts 210°
2026-04-25 16:35 9.05619 -79.38964 45 ft 22 kts 210°
2026-04-25 16:35 9.05491 -79.39037 42 ft 20 kts 209°
2026-04-25 16:36 9.05372 -79.39105 40 ft 21 kts 210°
2026-04-25 16:36 9.05327 -79.39130 40 ft 22 kts 210°
2026-04-25 16:36 9.05163 -79.39224 40 ft 16 kts 210°
2026-04-25 16:36 9.05060 -79.39283 39 ft 17 kts 210°
2026-04-25 16:37 9.04974 -79.39332 39 ft 13 kts 210°
2026-04-25 16:37 9.04914 -79.39366 39 ft 8 kts 209°
2026-04-25 16:37 9.04866 -79.39386 39 ft 7 kts 180°
2026-04-25 16:37 9.04841 -79.39374 39 ft 0 kts 129°
2026-04-25 16:43 9.04836 -79.39368 39 ft 5 kts 126°
2026-04-25 16:43 9.04811 -79.39325 39 ft 7 kts 119°
2026-04-25 16:43 9.04785 -79.39279 38 ft 3 kts 118°
2026-04-25 16:43 9.04783 -79.39259 38 ft 3 kts 70°
2026-04-25 16:44 9.04820 -79.39228 37 ft 5 kts 32°
2026-04-25 16:44 9.04824 -79.39226 37 ft 0 kts 31°
2026-04-25 16:44 9.04841 -79.39216 37 ft 12 kts 30°
2026-04-25 16:45 9.05102 -79.39066 38 ft 79 kts 29°
2026-04-25 16:45 9.05785 -79.38679 49 ft 145 kts 30°
2026-04-25 16:45 9.06813 -79.38098 224 ft 184 kts 32°
2026-04-25 16:45 9.07967 -79.37422 754 ft 199 kts 31°
2026-04-25 16:46 9.09170 -79.36732 1669 ft 199 kts 31°
2026-04-25 16:46 9.10360 -79.36053 2462 ft 200 kts 31°
2026-04-25 16:46 9.11613 -79.35338 2847 ft 213 kts 30°
2026-04-25 16:46 9.12051 -79.35091 3011 ft 215 kts 30°
2026-04-25 16:47 9.14348 -79.33805 3727 ft 236 kts 29°
2026-04-25 16:47 9.15808 -79.33001 4261 ft 246 kts 30°
2026-04-25 16:47 9.17329 -79.32127 4755 ft 257 kts 29°
2026-04-25 16:47 9.18912 -79.31230 5335 ft 265 kts 29°
2026-04-25 16:48 9.20515 -79.30312 5961 ft 271 kts 29°
2026-04-25 16:48 9.22305 -79.29611 6471 ft 279 kts
2026-04-25 16:48 9.24178 -79.29924 7189 ft 277 kts 334°
2026-04-25 16:48 9.25690 -79.31087 7884 ft 277 kts 310°
2026-04-25 16:49 9.26713 -79.32755 8494 ft 282 kts 293°
2026-04-25 16:49 9.27164 -79.34693 9027 ft 288 kts 273°
2026-04-25 16:49 9.27193 -79.36719 9761 ft 287 kts 271°
2026-04-25 16:49 9.27188 -79.38739 10329 ft 293 kts 271°
2026-04-25 16:50 9.27181 -79.40874 10619 ft 311 kts 271°
2026-04-25 16:50 9.27173 -79.43104 10842 ft 331 kts 270°
2026-04-25 16:50 9.27165 -79.45495 11111 ft 350 kts 270°
2026-04-25 16:50 9.27155 -79.48016 11420 ft 367 kts 270°
2026-04-25 16:51 9.27144 -79.50661 11756 ft 383 kts 270°
2026-04-25 16:51 9.27146 -79.53391 12310 ft 392 kts 273°
2026-04-25 16:51 9.27517 -79.56128 13048 ft 395 kts 283°
2026-04-25 16:51 9.27745 -79.57024 13317 ft 396 kts 285°
2026-04-25 16:52 9.29018 -79.61495 14684 ft 402 kts 286°
2026-04-25 16:52 9.29806 -79.64223 15467 ft 408 kts 286°
2026-04-25 16:52 9.30601 -79.66978 16208 ft 414 kts 286°
2026-04-25 16:52 9.31412 -79.69791 17034 ft 417 kts 286°
2026-04-25 16:53 9.33234 -79.75395 18460 ft 428 kts 295°
2026-04-25 16:53 9.34695 -79.78043 19113 ft 433 kts 304°
2026-04-25 16:53 9.36567 -79.80429 19756 ft 437 kts 314°
2026-04-25 16:54 9.38809 -79.82488 20424 ft 441 kts 323°
2026-04-25 16:54 9.41409 -79.84180 21110 ft 443 kts 333°
2026-04-25 16:54 9.44231 -79.85408 21765 ft 445 kts 342°
2026-04-25 16:54 9.47251 -79.86159 22382 ft 448 kts 352°
2026-04-25 16:55 9.50379 -79.86393 22970 ft 453 kts
2026-04-25 16:55 9.53545 -79.86304 23542 ft 458 kts
2026-04-25 16:55 9.56772 -79.86189 24121 ft 463 kts
2026-04-25 16:55 9.59997 -79.86082 24700 ft 468 kts
2026-04-25 16:56 9.63289 -79.85983 25256 ft 473 kts
2026-04-25 16:56 9.66594 -79.85889 25824 ft 478 kts
2026-04-25 16:56 9.69938 -79.85799 26396 ft 482 kts
2026-04-25 16:56 9.73286 -79.85712 26933 ft 487 kts
2026-04-25 16:57 9.76695 -79.85626 27473 ft 492 kts
2026-04-25 16:57 9.77855 -79.85596 27665 ft 493 kts
2026-04-25 16:57 9.83616 -79.85455 28614 ft 500 kts 360°
2026-04-25 16:57 9.87096 -79.85371 29152 ft 504 kts 360°
2026-04-25 16:58 9.90635 -79.85285 29827 ft 505 kts 360°
2026-04-25 16:58 9.94126 -79.85201 30623 ft 504 kts 360°
2026-04-25 16:58 9.97640 -79.85117 31401 ft 502 kts 360°
2026-04-25 16:58 10.01151 -79.85033 32104 ft 502 kts
2026-04-25 16:59 10.04719 -79.84948 32741 ft 502 kts
2026-04-25 16:59 10.08851 -79.84849 33558 ft 501 kts
2026-04-25 16:59 10.12767 -79.84757 34417 ft 498 kts
2026-04-25 16:59 10.16274 -79.84673 34910 ft 501 kts
2026-04-25 17:00 10.19755 -79.84591 34926 ft 501 kts
2026-04-25 17:00 10.26674 -79.84426 34920 ft 496 kts
2026-04-25 17:01 10.33624 -79.84262 34917 ft 497 kts
2026-04-25 17:01 10.40534 -79.84114 34908 ft 497 kts 357°
2026-04-25 17:02 10.47436 -79.84961 34911 ft 496 kts 349°
2026-04-25 17:02 10.54237 -79.86096 34911 ft 495 kts 349°
2026-04-25 17:03 10.61046 -79.87232 34911 ft 495 kts 349°
2026-04-25 17:03 10.67852 -79.88367 34911 ft 495 kts 349°
2026-04-25 17:04 10.74653 -79.89500 34911 ft 496 kts 349°
2026-04-25 17:04 10.81492 -79.90639 34910 ft 495 kts 349°
2026-04-25 17:05 10.88317 -79.91776 34911 ft 495 kts 349°
2026-04-25 17:05 10.98503 -79.93474 34912 ft 495 kts 349°
2026-04-25 17:06 11.05303 -79.94608 34911 ft 494 kts 349°
2026-04-25 17:06 11.12127 -79.95747 34909 ft 494 kts 348°
2026-04-25 17:07 11.19277 -79.96941 34908 ft 494 kts 349°
2026-04-25 17:07 11.26311 -79.98115 34909 ft 495 kts 348°
2026-04-25 17:08 11.33119 -79.99252 34909 ft 493 kts 349°
2026-04-25 17:08 11.39899 -80.00386 34909 ft 493 kts 349°
2026-04-25 17:09 11.46669 -80.01518 34909 ft 492 kts 348°
2026-04-25 17:09 11.53450 -80.02653 34909 ft 493 kts 348°
2026-04-25 17:10 11.60229 -80.03788 34910 ft 493 kts 348°
2026-04-25 17:10 11.66975 -80.04918 34909 ft 493 kts 348°
2026-04-25 17:11 11.73757 -80.06055 34916 ft 492 kts 348°
2026-04-25 17:11 11.80537 -80.07191 34925 ft 491 kts 348°
2026-04-25 17:12 11.87307 -80.08327 34930 ft 491 kts 348°
2026-04-25 17:12 11.94530 -80.09539 34930 ft 491 kts 348°
2026-04-25 17:13 11.99827 -80.10429 34934 ft 490 kts 348°
2026-04-25 17:13 12.10333 -80.12194 34932 ft 490 kts 348°
2026-04-25 17:14 12.17770 -80.13444 34930 ft 490 kts 348°
2026-04-25 17:14 12.24814 -80.14629 34930 ft 491 kts 348°
2026-04-25 17:15 12.31567 -80.15765 34930 ft 491 kts 348°
2026-04-25 17:15 12.38293 -80.16898 34930 ft 490 kts 348°
2026-04-25 17:16 12.45876 -80.18176 34931 ft 490 kts 348°
2026-04-25 17:16 12.52634 -80.19315 34927 ft 490 kts 348°
2026-04-25 17:17 12.59391 -80.20455 34924 ft 491 kts 348°
2026-04-25 17:17 12.66131 -80.21593 34923 ft 491 kts 348°
2026-04-25 17:18 12.72883 -80.22732 34924 ft 490 kts 348°
2026-04-25 17:18 12.80052 -80.23944 34922 ft 490 kts 349°
2026-04-25 17:19 12.87634 -80.25226 34912 ft 490 kts 349°
2026-04-25 17:19 12.95255 -80.26514 34912 ft 491 kts 349°
2026-04-25 17:20 13.02402 -80.27724 34908 ft 491 kts 349°
2026-04-25 17:20 13.10358 -80.29072 34913 ft 490 kts 349°
2026-04-25 17:21 13.17715 -80.30318 34907 ft 490 kts 349°
2026-04-25 17:21 13.24471 -80.31464 34908 ft 490 kts 349°
2026-04-25 17:22 13.28942 -80.32223 34909 ft 490 kts 349°
2026-04-25 17:22 13.37938 -80.33750 34908 ft 490 kts 349°
2026-04-25 17:23 13.44654 -80.34891 34908 ft 491 kts 349°
2026-04-25 17:23 13.51395 -80.36036 34918 ft 490 kts 349°
2026-04-25 17:24 13.58132 -80.37182 34929 ft 489 kts 349°
2026-04-25 17:24 13.64854 -80.38326 34928 ft 489 kts 349°
2026-04-25 17:25 13.71574 -80.39470 34928 ft 489 kts 349°
2026-04-25 17:25 13.78327 -80.40620 34927 ft 489 kts 349°
2026-04-25 17:26 13.85021 -80.41761 34928 ft 489 kts 349°
2026-04-25 17:26 13.91731 -80.42905 34927 ft 489 kts 349°
2026-04-25 17:27 13.98469 -80.44054 34926 ft 488 kts 348°
2026-04-25 17:27 14.02930 -80.44817 34931 ft 488 kts 348°
2026-04-25 17:28 14.11874 -80.46344 34927 ft 488 kts 348°
2026-04-25 17:28 14.18584 -80.47491 34925 ft 488 kts 348°
2026-04-25 17:29 14.25296 -80.48640 34928 ft 487 kts 348°
2026-04-25 17:29 14.31986 -80.49785 34928 ft 487 kts 348°
2026-04-25 17:30 14.38687 -80.50932 34927 ft 487 kts 348°
2026-04-25 17:30 14.45362 -80.52076 34926 ft 488 kts 348°
2026-04-25 17:31 14.52083 -80.53229 34927 ft 487 kts 348°
2026-04-25 17:31 14.58795 -80.54380 34926 ft 487 kts 348°
2026-04-25 17:32 14.65491 -80.55530 34923 ft 486 kts 348°
2026-04-25 17:32 14.72154 -80.56674 34919 ft 486 kts 348°
2026-04-25 17:33 14.78834 -80.57822 34917 ft 485 kts 348°
2026-04-25 17:33 14.85466 -80.58963 34913 ft 486 kts 348°
2026-04-25 17:34 14.92157 -80.60114 34914 ft 486 kts 348°
2026-04-25 17:34 14.98841 -80.61266 34914 ft 486 kts 348°
2026-04-25 17:35 15.05532 -80.62418 34916 ft 486 kts 348°
2026-04-25 17:35 15.12220 -80.63572 34908 ft 485 kts 348°
2026-04-25 17:36 15.18840 -80.64714 34908 ft 483 kts 348°
2026-04-25 17:36 15.25500 -80.65864 34912 ft 484 kts 347°
2026-04-25 17:37 15.32155 -80.67014 34911 ft 482 kts 347°
2026-04-25 17:37 15.38756 -80.68155 34913 ft 483 kts 347°
2026-04-25 17:38 15.43199 -80.68923 34911 ft 483 kts 347°
2026-04-25 17:38 15.52047 -80.70454 34911 ft 482 kts 347°
2026-04-25 17:39 15.58677 -80.71603 34911 ft 482 kts 347°
2026-04-25 17:39 15.65268 -80.72746 34911 ft 480 kts 347°
2026-04-25 17:40 15.71872 -80.73891 34912 ft 480 kts 347°
2026-04-25 17:40 15.78454 -80.75033 34912 ft 480 kts 347°
2026-04-25 17:41 15.85038 -80.76176 34910 ft 479 kts 347°
2026-04-25 17:41 15.91621 -80.77321 34911 ft 479 kts 347°
2026-04-25 17:42 15.98220 -80.78468 34911 ft 479 kts 347°
2026-04-25 17:42 16.04747 -80.79771 34912 ft 476 kts 344°
2026-04-25 17:43 16.11312 -80.81275 34911 ft 476 kts 343°
2026-04-25 17:43 16.17888 -80.82768 34912 ft 476 kts 344°
2026-04-25 17:44 16.24390 -80.84238 34914 ft 475 kts 343°
2026-04-25 17:44 16.30867 -80.85695 34921 ft 474 kts 343°
2026-04-25 17:45 16.35611 -80.86762 34922 ft 474 kts 343°
2026-04-25 17:45 16.44258 -80.88707 34926 ft 474 kts 343°
2026-04-25 17:46 16.50685 -80.90154 34932 ft 473 kts 343°
2026-04-25 17:46 16.57120 -80.91605 34931 ft 474 kts 344°
2026-04-25 17:47 16.63596 -80.93064 34930 ft 473 kts 343°
2026-04-25 17:47 16.69633 -80.94427 34933 ft 474 kts 343°
2026-04-25 17:48 16.79499 -80.96654 34930 ft 472 kts 343°
2026-04-25 17:49 16.85923 -80.98106 34931 ft 474 kts 343°
2026-04-25 17:49 16.92353 -80.99560 34915 ft 473 kts 343°
2026-04-25 17:49 16.95623 -81.00301 34529 ft 478 kts 343°
2026-04-25 17:50 16.98850 -81.01032 34038 ft 477 kts 343°
2026-04-25 17:50 17.02107 -81.01769 33546 ft 474 kts 343°
2026-04-25 17:50 17.05307 -81.02494 33060 ft 473 kts 343°
2026-04-25 17:50 17.08552 -81.03230 32603 ft 475 kts 343°
2026-04-25 17:51 17.11778 -81.03961 32172 ft 477 kts 343°
2026-04-25 17:51 17.15023 -81.04698 31743 ft 479 kts 343°
2026-04-25 17:51 17.18307 -81.05443 31309 ft 481 kts 343°
2026-04-25 17:51 17.21564 -81.06183 30880 ft 480 kts 344°
2026-04-25 17:52 17.24809 -81.06918 30454 ft 476 kts 344°
2026-04-25 17:52 17.25892 -81.07164 30312 ft 475 kts 344°
2026-04-25 17:52 17.31230 -81.08375 29603 ft 468 kts 344°
2026-04-25 17:52 17.34419 -81.09100 29174 ft 465 kts 344°
2026-04-25 17:53 17.37563 -81.09814 28763 ft 462 kts 344°
2026-04-25 17:53 17.40729 -81.10533 28383 ft 459 kts 344°
2026-04-25 17:53 17.43805 -81.11233 28013 ft 456 kts 344°
2026-04-25 17:53 17.46925 -81.11942 27634 ft 452 kts 344°
2026-04-25 17:54 17.49966 -81.12633 27265 ft 449 kts 344°
2026-04-25 17:54 17.53010 -81.13326 26894 ft 446 kts 344°
2026-04-25 17:54 17.56029 -81.14014 26524 ft 443 kts 344°
2026-04-25 17:54 17.59076 -81.14708 26147 ft 441 kts 344°
2026-04-25 17:55 17.62047 -81.15385 25779 ft 439 kts 344°
2026-04-25 17:55 17.65050 -81.16070 25402 ft 437 kts 344°
2026-04-25 17:55 17.68004 -81.16743 25031 ft 433 kts 345°
2026-04-25 17:55 17.70937 -81.17412 24662 ft 430 kts 345°
2026-04-25 17:56 17.73860 -81.18079 24288 ft 427 kts 345°
2026-04-25 17:56 17.76754 -81.18739 23916 ft 424 kts 345°
2026-04-25 17:56 17.79615 -81.19392 23547 ft 421 kts 345°
2026-04-25 17:56 17.82472 -81.20046 23179 ft 419 kts 345°
2026-04-25 17:57 17.85311 -81.20694 22811 ft 416 kts 345°
2026-04-25 17:57 17.88158 -81.21345 22441 ft 413 kts 345°
2026-04-25 17:57 17.90950 -81.21983 22082 ft 411 kts 345°
2026-04-25 17:57 17.91886 -81.22198 21961 ft 410 kts 345°
2026-04-25 17:58 17.96537 -81.23262 21363 ft 410 kts 345°
2026-04-25 17:58 17.99312 -81.23898 21003 ft 408 kts 345°
2026-04-25 17:58 18.02113 -81.24539 20638 ft 407 kts 345°
2026-04-25 17:58 18.04857 -81.25167 20280 ft 405 kts 345°
2026-04-25 17:59 18.07607 -81.25798 19920 ft 403 kts 345°
2026-04-25 17:59 18.10336 -81.26423 19562 ft 401 kts 345°
2026-04-25 17:59 18.13053 -81.27046 19211 ft 400 kts 345°
2026-04-25 17:59 18.15768 -81.27670 18858 ft 398 kts 345°
2026-04-25 18:00 18.18500 -81.28296 18500 ft 396 kts 345°
2026-04-25 18:00 18.21197 -81.28915 18144 ft 395 kts 345°
2026-04-25 18:00 18.23860 -81.29527 17794 ft 394 kts 345°
2026-04-25 18:00 18.26561 -81.30147 17440 ft 393 kts 345°
2026-04-25 18:01 18.29221 -81.30758 17091 ft 391 kts 345°
2026-04-25 18:01 18.31882 -81.31370 16735 ft 389 kts 346°
2026-04-25 18:01 18.34518 -81.31976 16435 ft 388 kts 346°
2026-04-25 18:01 18.37153 -81.32582 16048 ft 386 kts 346°
2026-04-25 18:02 18.39748 -81.33179 15691 ft 381 kts 346°
2026-04-25 18:02 18.42353 -81.33778 15336 ft 379 kts 346°
2026-04-25 18:02 18.44929 -81.34371 14984 ft 378 kts 346°
2026-04-25 18:02 18.47479 -81.34959 14633 ft 375 kts 346°
2026-04-25 18:03 18.50036 -81.35548 14279 ft 374 kts 346°
2026-04-25 18:03 18.52589 -81.36136 13922 ft 371 kts 346°
2026-04-25 18:03 18.55091 -81.36713 13570 ft 369 kts 346°
2026-04-25 18:03 18.57580 -81.37286 13217 ft 366 kts 346°
2026-04-25 18:04 18.60064 -81.37859 12864 ft 365 kts 346°
2026-04-25 18:04 18.62545 -81.38432 12511 ft 363 kts 346°
2026-04-25 18:04 18.65040 -81.39008 12152 ft 361 kts 346°
2026-04-25 18:04 18.67482 -81.39571 11799 ft 359 kts 346°
2026-04-25 18:05 18.69918 -81.40134 11445 ft 358 kts 346°
2026-04-25 18:05 18.72341 -81.40694 11091 ft 356 kts 346°
2026-04-25 18:05 18.74778 -81.41257 10733 ft 356 kts 346°
2026-04-25 18:05 18.77177 -81.41811 10379 ft 354 kts 346°
2026-04-25 18:06 18.79603 -81.42372 10042 ft 349 kts 346°
2026-04-25 18:06 18.81912 -81.42905 9948 ft 335 kts 346°
2026-04-25 18:06 18.84163 -81.43425 9565 ft 321 kts 346°
2026-04-25 18:06 18.86288 -81.43916 9172 ft 309 kts 346°
2026-04-25 18:07 18.88364 -81.44395 8770 ft 298 kts 346°
2026-04-25 18:07 18.90369 -81.44859 8370 ft 289 kts 346°
2026-04-25 18:07 18.92300 -81.45306 7969 ft 282 kts 346°
2026-04-25 18:07 18.94186 -81.45743 7570 ft 275 kts 346°
2026-04-25 18:08 18.96047 -81.46174 7166 ft 269 kts 346°
2026-04-25 18:08 18.97845 -81.46590 6784 ft 262 kts 347°
2026-04-25 18:08 18.99613 -81.47000 6374 ft 256 kts 347°
2026-04-25 18:08 19.01327 -81.47398 5973 ft 250 kts 346°
2026-04-25 18:09 19.03021 -81.47791 5569 ft 246 kts 346°
2026-04-25 18:09 19.04681 -81.48176 5171 ft 239 kts 347°
2026-04-25 18:09 19.06275 -81.48545 4768 ft 230 kts 346°
2026-04-25 18:09 19.06798 -81.48666 4634 ft 227 kts 346°
2026-04-25 18:10 19.09311 -81.49249 3968 ft 218 kts 346°
2026-04-25 18:10 19.10784 -81.49591 3564 ft 215 kts 346°
2026-04-25 18:10 19.12240 -81.49930 3158 ft 212 kts 346°
2026-04-25 18:10 19.13675 -81.50264 2748 ft 210 kts 347°
2026-04-25 18:11 19.15091 -81.50594 2340 ft 203 kts 347°
2026-04-25 18:11 19.16419 -81.50903 2039 ft 191 kts 347°
2026-04-25 18:11 19.17697 -81.51200 1731 ft 185 kts 347°
2026-04-25 18:11 19.18929 -81.51487 1483 ft 176 kts 347°
2026-04-25 18:12 19.20161 -81.51773 1454 ft 182 kts 347°
2026-04-25 18:12 19.21399 -81.52061 1451 ft 183 kts 347°
2026-04-25 18:12 19.22638 -81.52343 1453 ft 182 kts 352°
2026-04-25 18:12 19.23894 -81.52269 1447 ft 183 kts 18°
2026-04-25 18:13 19.24996 -81.51627 1450 ft 177 kts 44°
2026-04-25 18:13 19.25696 -81.50603 1464 ft 170 kts 68°
2026-04-25 18:13 19.26030 -81.49413 1471 ft 168 kts 77°
2026-04-25 18:14 19.26598 -81.47027 1468 ft 167 kts 78°
2026-04-25 18:14 19.26880 -81.45843 1456 ft 165 kts 78°
2026-04-25 18:14 19.27155 -81.44686 1476 ft 162 kts 78°
2026-04-25 18:14 19.27441 -81.43545 1470 ft 158 kts 76°
2026-04-25 18:15 19.27706 -81.42416 1354 ft 156 kts 77°
2026-04-25 18:15 19.27979 -81.41325 1161 ft 154 kts 77°
2026-04-25 18:15 19.28247 -81.40213 869 ft 156 kts 78°
2026-04-25 18:15 19.28498 -81.39114 571 ft 152 kts 79°
2026-04-25 18:16 19.28750 -81.38038 293 ft 145 kts 78°
2026-04-25 18:16 19.28992 -81.37003 110 ft 146 kts 77°
2026-04-25 18:16 19.29524 -81.34763 1034 ft 182 kts 78°
2026-04-25 18:17 19.29672 -81.33456 1787 ft 187 kts 98°
2026-04-25 18:17 19.29235 -81.32149 2077 ft 188 kts 128°
2026-04-25 18:17 19.28223 -81.31334 2234 ft 189 kts 159°
2026-04-25 18:17 19.26978 -81.30868 2173 ft 185 kts 162°
2026-04-25 18:18 19.25764 -81.30431 2073 ft 186 kts 166°
2026-04-25 18:18 19.24513 -81.30565 1973 ft 181 kts 214°
2026-04-25 18:18 19.23799 -81.31639 2020 ft 187 kts 255°
2026-04-25 18:18 19.23509 -81.32983 1998 ft 185 kts 255°
2026-04-25 18:19 19.23196 -81.34309 2148 ft 190 kts 254°
2026-04-25 18:19 19.22839 -81.35662 2039 ft 189 kts 252°
2026-04-25 18:19 19.22473 -81.36998 1867 ft 186 kts 253°
2026-04-25 18:19 19.22124 -81.38304 1895 ft 184 kts 252°
2026-04-25 18:20 19.21786 -81.39626 2040 ft 188 kts 264°
2026-04-25 18:20 19.22121 -81.40902 1941 ft 180 kts 304°
2026-04-25 18:20 19.23060 -81.41681 1844 ft 171 kts 339°
2026-04-25 18:20 19.24185 -81.42018 1736 ft 162 kts 344°
2026-04-25 18:21 19.25261 -81.42319 1684 ft 164 kts 344°
2026-04-25 18:21 19.26399 -81.42603 1565 ft 168 kts 357°
2026-04-25 18:21 19.27497 -81.42299 1438 ft 160 kts 40°
2026-04-25 18:21 19.28027 -81.41322 1167 ft 157 kts 85°
2026-04-25 18:22 19.28241 -81.40215 873 ft 152 kts 75°
2026-04-25 18:22 19.28333 -81.39867 779 ft 152 kts 78°
2026-04-25 18:22 19.28742 -81.38071 320 ft 143 kts 77°
2026-04-25 18:22 19.28980 -81.37060 104 ft 143 kts 78°
2026-04-25 18:23 19.29212 -81.36060 18 ft 127 kts 77°
2026-04-25 18:23 19.29350 -81.35480 18 ft 50 kts 76°
2026-04-25 18:23 19.29430 -81.35144 18 ft 43 kts 76°
2026-04-25 18:23 19.29476 -81.34954 18 ft 11 kts 76°
2026-04-25 18:24 19.29495 -81.34881 18 ft 9 kts 63°
2026-04-25 18:24 19.29550 -81.34889 18 ft 13 kts 318°
2026-04-25 18:24 19.29566 -81.34994 18 ft 17 kts 257°
2026-04-25 18:24 19.29535 -81.35129 18 ft 20 kts 256°
2026-04-25 18:25 19.29496 -81.35287 18 ft 21 kts 255°
2026-04-25 18:25 19.29463 -81.35426 18 ft 15 kts 256°
2026-04-25 18:25 19.29440 -81.35526 18 ft 10 kts 256°
2026-04-25 18:25 19.29440 -81.35573 18 ft 5 kts 307°
2026-04-25 18:26 19.29484 -81.35582 18 ft 6 kts 37°
2026-04-25 18:26 19.29507 -81.35531 18 ft 10 kts 76°
2026-04-25 18:26 19.29522 -81.35481 18 ft 3 kts 51°
2026-04-25 18:26 19.29547 -81.35473 18 ft 5 kts 359°
2026-04-25 18:27 19.29589 -81.35480 18 ft 5 kts 347°